Terug naar catalogus

COSMOS 1020

ActiefNavigatieLEO
NORAD 10937·PAYLOAD·🇷🇺 Russia

Gelanceerd Jun 7, 1978 vanaf Plesetsk Cosmodrome

Loading…

Volgende Passages (komende 24 uur)

TLE

VersSource: Space-Track

Epoch: Sep 14, 2026, 06:17 UTC

1 10937U 78056H   26257.26238401 -.00000014  00000-0  14054-4 0  9998
2 10937  74.0306   6.5996 0049073  35.1676 325.2600 12.54559762210599

Volg COSMOS 1020 in realtime met AllMySat

Download on the App Store